Regional Weather Roundup
Issued by NWS Green Bay, WI

Home | Current Version | Previous Version | Graphics & Text | Print | Product List | Glossary Off
Versions: 1 2 3 4 5 6 7 8 9 10 11 12 13 14 15 16 17 18 19 20 21 22 23 24 25 26 27 28 29 30 31 32 33 34 35 36 37 38 39 40 41 42 43 44 45 46 47 48 49 50

000
ASUS43 KGRB 270611
RWRGRB

NORTH-CENTRAL AND NORTHEAST WISCONSIN REGIONAL WEATHER ROUNDUP
NATIONAL WEATHER SERVICE GREEN BAY WI
100 AM CDT TUE JUN 27 2017

WIZ005-009-010>012-018-019-270700-
NORTH CENTRAL WISCONSIN

CITY           SKY/WX    TMP DP  RH WIND       PRES   REMARKS
IRONWOOD       CLOUDY    50  47  89 SW3       30.04
MANITOWISH WTR MOCLDY    45  45 100 CALM      30.05S FOG
ARBOR VITAE    MOCLDY    49  47  93 CALM      30.05S
EAGLE RIVER    PTCLDY    43  43 100 W5        30.04S FOG
LAND O LAKES   MOCLDY    43  43 100 CALM      30.06R
RHINELANDER    CLEAR     43  43 100 W5        30.06S
PHILLIPS       CLOUDY    49  49  99 CALM      30.06F
ANTIGO         CLEAR     45  45  99 CALM      30.07S
TOMAHAWK       NOT AVBL
MERRILL        CLEAR     43  43 100 CALM      30.07F
$$

WIZ013-073-270700-
NORTHEAST WISCONSIN

CITY           SKY/WX    TMP DP  RH WIND       PRES   REMARKS
IRON MOUNTAIN  CLEAR     45  41  86 CALM      30.00F
MARINETTE      CLEAR     52  49  89 W5        30.02F
OCONTO         CLEAR     47  47  97 W3        30.03S
$$

WIZ017-030-035>037-045-270700-
CENTRAL WISCONSIN

CITY           SKY/WX    TMP DP  RH WIND       PRES   REMARKS
MEDFORD        PTCLDY    49  46  87 W6        30.08S
WAUSAU         CLEAR     51  47  86 NW3       30.06S
MOSINEE        CLEAR     50  46  87 W6        30.09S
MARSHFIELD     CLEAR     49  45  86 W7        30.08S
WISC RAPIDS    CLEAR     47  45  93 CALM      30.10S
STEVENS POINT  CLEAR     50  46  86 CALM      30.08F
WAUPACA        PTCLDY    54  49  84 W6        30.07F
SHAWANO        CLEAR     54  48  82 W6        30.05S
CLINTONVILLE   CLEAR     48  45  87 CALM      30.06S
WAUTOMA        CLEAR     47  45  93 W7        30.09S
$$

WIZ038-039-048-051-270700-
FOX VALLEY

CITY           SKY/WX    TMP DP  RH WIND       PRES   REMARKS
NWS GREEN BAY  CLEAR     53  51  93 W6        30.04F
APPLETON       CLEAR     52  45  76 W8        30.05S
OSHKOSH        CLEAR     54  46  74 W6        30.06S
FOND DU LAC    CLEAR     52  44  74 SW5       30.07F
$$

WIZ022-050-052-270700-
EAST CENTRAL WISCONSIN

CITY           SKY/WX    TMP DP  RH WIND       PRES   REMARKS
EPHRAIM        FAIR      55  50  83 W6        30.01S
WASHINGTON ISL FAIR      56  50  81 W6        30.00S
STURGEON BAY     N/A     53  50  89 SW5         N/A
MANITOWOC      CLEAR     52  49  89 W3        30.05F
SHEBOYGAN      CLEAR     49  49 100 SW3       30.06F
$$

LMZ563-521-522-541>543-270700-
LAKESHORE

STATION/POSITION TIME  TEMP    WIND        PRES    VSBY  WAVE
                       AIR SEA DIR/SP/G                  HT/PER
                 (UTC) (F)     (DEG/KT/KT) (MB)    (MI)  (FT/S)
SHEBOYGAN LKSHOR 0600   54     240/  5/  6 1017.8F
KEWAUNEE LKSHORE 0548   51     300/  5/  6 1016.6F
NORTHPORT PIER   0540   55     260/  3/  7 1015.9S
N MID LAKE BUOY  0550   55 55  230/  6/  6 1016.5S         1
S GREEN BAY BUOY 0600   59     240/ 12/ 16 1016.4
CHAMBERS ISLAND  0530   57     230/  5/  9 1015.9S
MENOMINEE LKSHOR 0548          240/  8/ 11 1015.6F
$$




USA.gov is the U.S. government's official web portal to all federal, state and local government web resources and services.